N5MDT Weather Reports


time (UTC)temp
C
wind
direction
speed
KPH
gust
KPH
rain 1hr
cm
rain 24hr
cm
rain mn
cm
humidity
%
barometer
mb
20260509102845 23 129 0.0 0.0 0.00 0.00 0.00 89 1011.2
20260509101845 23 129 0.0 0.0 0.00 0.00 0.00 90 1011.0
20260509100845 23 129 0.0 0.0 0.00 0.00 0.00 90 1010.9
20260509095845 23 129 0.0 0.0 0.00 0.00 0.00 89 1010.8
20260509094845 23 129 0.0 0.0 0.00 0.00 0.00 90 1010.6
20260509093845 23 129 0.0 0.0 0.00 0.00 0.00 89 1010.6
20260509092844 23 129 0.0 0.0 0.00 0.00 0.00 89 1010.6
20260509091845 23 129 0.0 0.0 0.00 0.00 0.00 89 1010.8
20260509090844 23 129 0.0 0.0 0.00 0.00 0.00 89 1011.1
20260509085844 23 129 0.0 0.0 0.00 0.00 0.00 89 1011.2
20260509084844 23 129 0.0 0.0 0.00 0.00 0.00 89 1011.0
20260509083844 23 129 0.0 0.0 0.00 0.00 0.00 89 1011.0
20260509082844 23 129 0.0 0.0 0.00 0.00 0.00 89 1011.1
20260509081844 23 129 0.0 0.0 0.00 0.00 0.00 89 1011.0
20260509080859 23 129 0.0 0.0 0.00 0.00 0.00 89 1011.1
20260509075859 23 129 0.0 0.0 0.00 0.00 0.00 89 1011.3
20260509074844 23 129 0.0 0.0 0.00 0.00 0.00 89 1011.2
20260509073844 23 129 0.0 0.0 0.00 0.00 0.00 89 1011.2
20260509072859 23 157 0.0 8.0 0.00 0.00 0.00 89 1010.9
20260509071844 23 134 3.2 3.2 0.00 0.00 0.00 89 1010.8
20260509070844 23 111 0.0 4.8 0.00 0.00 0.00 89 1010.8
20260509065844 23 159 1.6 6.4 0.00 0.00 0.00 89 1011.0
20260509064843 23 113 3.2 6.4 0.00 0.00 0.00 88 1011.0
20260509063843 23 84 3.2 9.7 0.00 0.00 0.00 88 1010.8
20260509062843 23 174 1.6 9.7 0.00 0.00 0.00 88 1010.7
20260509061844 23 121 0.0 6.4 0.00 0.00 0.00 88 1011.0
20260509060843 23 76 6.4 6.4 0.00 0.00 0.00 88 1011.1
20260509055843 23 148 0.0 9.7 0.00 0.00 0.00 88 1011.3
20260509054843 23 95 0.0 9.7 0.00 0.00 0.00 88 1011.3
20260509053843 23 94 1.6 11.3 0.00 0.00 0.00 88 1011.4
20260509052843 23 101 3.2 11.3 0.00 0.00 0.00 88 1011.3
20260509051843 23 165 6.4 11.3 0.00 0.00 0.00 88 1011.2
20260509050843 23 125 1.6 11.3 0.00 0.00 0.00 87 1011.4
20260509045843 23 94 0.0 6.4 0.00 0.00 0.00 87 1011.5
20260509044858 23 121 0.0 9.7 0.00 0.00 0.00 87 1011.4
20260509043842 23 80 0.0 3.2 0.00 0.00 0.00 87 1011.3
20260509042829 23 131 1.6 9.7 0.00 0.00 0.00 87 1011.3
20260509041829 23 138 1.6 11.3 0.00 0.00 0.00 87 1011.3
20260509040829 23 89 1.6 11.3 0.00 0.00 0.00 86 1011.1
20260509035829 23 73 0.0 9.7 0.00 0.00 0.00 86 1011.2
20260509034829 23 101 3.2 6.4 0.00 0.00 0.00 86 1011.4
20260509033829 23 146 4.8 12.9 0.00 0.00 0.00 85 1011.4
20260509032829 23 144 3.2 11.3 0.00 0.00 0.00 85 1011.3
20260509031844 23 81 0.0 6.4 0.00 0.00 0.00 85 1011.2
20260509030829 23 107 3.2 9.7 0.00 0.00 0.00 85 1011.0
20260509025829 23 96 6.4 8.0 0.00 0.00 0.00 84 1010.7
20260509024829 23 106 0.0 9.7 0.00 0.00 0.00 84 1010.6
20260509023828 23 115 1.6 14.5 0.00 0.00 0.00 83 1010.6
20260509022828 24 163 1.6 11.3 0.00 0.00 0.00 83 1010.7
20260509021828 24 151 0.0 12.9 0.00 0.00 0.00 83 1010.7
20260509020843 24 122 6.4 12.9 0.00 0.00 0.00 82 1010.7
20260509015828 24 122 3.2 14.5 0.00 0.00 0.00 81 1010.8
20260509014844 24 114 1.6 14.5 0.00 0.00 0.00 81 1010.6
20260509013828 24 160 0.0 12.9 0.00 0.00 0.00 81 1010.5
20260509012828 25 97 3.2 6.4 0.00 0.00 0.00 81 1010.5
20260509011828 25 95 0.0 4.8 0.00 0.00 0.00 80 1010.5
20260509010828 25 92 0.0 4.8 0.00 0.00 0.00 80 1010.1
20260509005843 25 104 3.2 4.8 0.00 0.00 0.00 80 1009.9
20260509004828 25 86 0.0 14.5 0.00 0.00 0.00 79 1010.2
20260509003858 25 119 4.8 11.3 0.00 0.00 0.00 79 1010.2
20260509002828 25 106 0.0 9.7 0.00 0.00 0.00 79 1010.2
20260509001827 25 108 3.2 11.3 0.00 0.00 0.00 78 1010.4
20260509000827 25 103 1.6 9.7 0.00 0.00 0.00 78 1010.3
20260508235842 25 137 8.0 11.3 0.00 0.00 0.00 78 1010.3
20260508234827 25 94 11.3 11.3 0.00 0.00 0.00 78 1010.5
20260508233827 25 84 0.0 4.8 0.00 0.00 0.00 78 1010.6
20260508232827 26 127 4.8 9.7 0.00 0.00 0.00 78 1010.5
20260508231827 26 88 0.0 6.4 0.00 0.00 0.00 78 1010.4
20260508230827 26 84 3.2 4.8 0.00 0.00 0.00 78 1010.4
20260508225827 26 80 0.0 11.3 0.00 0.00 0.00 77 1010.4
20260508224827 26 107 0.0 9.7 0.00 0.00 0.00 77 1010.4
20260508223827 26 107 3.2 9.7 0.00 0.00 0.00 77 1010.4
20260508222826 26 118 3.2 11.3 0.00 0.00 0.00 77 1010.4
20260508221827 26 98 0.0 6.4 0.00 0.00 0.00 77 1010.4
20260508220827 26 115 1.6 8.0 0.00 0.00 0.00 77 1010.5
20260508215826 26 83 0.0 4.8 0.00 0.00 0.00 77 1010.5
20260508214826 26 139 0.0 3.2 0.00 0.00 0.00 76 1010.5
20260508213826 27 143 1.6 9.7 0.00 0.00 0.00 76 1010.5
20260508212826 27 148 4.8 9.7 0.00 0.00 0.00 76 1010.6
20260508211826 27 113 4.8 6.4 0.00 0.00 0.00 75 1010.7
20260508210826 27 87 1.6 8.0 0.00 0.00 0.00 75 1010.7
20260508205826 27 147 3.2 9.7 0.00 0.00 0.00 75 1010.8
20260508204826 27 113 0.0 6.4 0.00 0.00 0.00 74 1010.9
20260508203826 27 144 1.6 4.8 0.00 0.00 0.00 75 1011.1
20260508202826 27 167 0.0 4.8 0.00 0.00 0.00 75 1011.3
20260508201826 27 92 3.2 6.4 0.00 0.00 0.00 75 1011.3
20260508200825 27 165 0.0 3.2 0.00 0.00 0.00 76 1011.4
20260508195825 27 184 0.0 4.8 0.00 0.00 0.00 77 1011.5
20260508194825 26 153 0.0 6.4 0.00 0.00 0.00 78 1011.6
20260508193825 26 88 0.0 9.7 0.00 0.00 0.00 77 1011.7
20260508192825 26 115 0.0 6.4 0.00 0.00 0.00 77 1011.7
20260508191825 26 193 0.0 3.2 0.00 0.00 0.00 78 1012.1
20260508190825 26 250 1.6 1.6 0.00 0.00 0.00 78 1012.2
20260508185841 26 127 0.0 3.2 0.00 0.00 0.00 79 1012.1
20260508184825 25 86 0.0 6.4 0.00 0.00 0.00 79 1012.0
20260508183825 25 169 0.0 0.0 0.00 0.00 0.00 80 1012.4
20260508182825 25 169 0.0 8.0 0.00 0.00 0.00 81 1012.4
20260508181825 25 116 3.2 3.2 0.00 0.00 0.00 82 1012.4
20260508180840 24 113 0.0 3.2 0.00 0.00 0.00 83 1012.4
20260508175824 23 113 0.0 4.8 0.00 0.00 0.00 82 1012.7
20260508174825 23 112 1.6 4.8 0.00 0.00 0.00 83 1012.9
20260508173840 23 83 0.0 0.0 0.00 0.00 0.00 83 1012.9
20260508172824 23 99 0.0 0.0 0.00 0.00 0.00 83 1013.0
20260508171824 23 91 0.0 0.0 0.00 0.00 0.00 83 1013.1
20260508170824 22 91 0.0 4.8 0.00 0.00 0.00 84 1013.2
20260508165824 22 90 3.2 4.8 0.00 0.00 0.00 84 1013.0
20260508164839 22 107 1.6 6.4 0.00 0.00 0.00 84 1013.1
20260508163824 22 89 0.0 3.2 0.00 0.00 0.00 84 1013.4
20260508162824 22 105 3.2 6.4 0.00 0.00 0.00 85 1013.5
20260508161824 21 49 0.0 0.0 0.00 0.00 0.00 86 1013.5
20260508160824 21 90 0.0 1.6 0.00 0.00 0.00 86 1013.5
20260508155824 21 71 0.0 3.2 0.00 0.00 0.00 86 1013.8
20260508154824 21 71 1.6 6.4 0.00 0.00 0.00 87 1013.9
20260508153824 20 44 3.2 11.3 0.00 0.00 0.00 87 1014.1
20260508152839 20 97 3.2 9.7 0.00 0.00 0.00 86 1014.2
20260508151839 20 91 1.6 9.7 0.00 0.00 0.00 87 1014.5
20260508150824 20 59 0.0 0.0 0.00 0.00 0.00 87 1014.5
20260508145824 19 59 0.0 0.0 0.00 0.00 0.00 86 1014.6
20260508144824 19 65 0.0 0.0 0.00 0.00 0.00 86 1014.7
20260508143839 19 74 0.0 3.2 0.00 0.00 0.00 86 1014.8
20260508142824 19 103 0.0 4.8 0.00 0.00 0.00 86 1015.0
20260508141839 19 63 3.2 3.2 0.00 0.00 0.00 86 1014.9
20260508140824 19 76 0.0 0.0 0.00 0.00 0.00 86 1014.9
20260508135824 19 40 0.0 0.0 0.00 0.00 0.00 86 1015.1
20260508134823 19 30 0.0 0.0 0.00 0.00 0.00 85 1015.2
20260508133824 19 30 0.0 1.6 0.00 0.00 0.00 85 1015.1
20260508132824 19 325 0.0 3.2 0.00 0.00 0.00 85 1014.8
20260508131823 19 286 1.6 4.8 0.00 0.00 0.00 85 1014.9
20260508130823 19 335 0.0 1.6 0.00 0.00 0.00 85 1014.6
20260508125839 19 335 0.0 0.0 0.00 0.00 0.00 85 1014.7
20260508124823 19 335 0.0 0.0 0.00 0.00 0.00 84 1014.6
20260508123823 19 335 0.0 1.6 0.00 0.00 0.00 84 1014.5
20260508122823 19 89 0.0 3.2 0.00 0.00 0.00 84 1013.9
20260508121839 19 89 0.0 0.0 0.00 0.00 0.00 83 1014.2
20260508120823 19 89 0.0 3.2 0.00 0.00 0.00 83 1014.5
20260508115823 19 342 0.0 3.2 0.00 0.00 0.00 82 1014.7
20260508114823 20 157 0.0 6.4 0.00 0.00 0.00 82 1014.1
20260508113823 20 131 3.2 4.8 0.00 0.00 0.00 81 1014.2
20260508112823 20 59 0.0 4.8 0.00 0.00 0.00 82 1013.8
20260508111822 20 86 0.0 0.0 0.00 0.00 0.00 80 1014.8
20260508110822 20 86 0.0 0.0 0.00 0.00 0.00 79 1013.9
20260508105822 20 86 0.0 1.6 0.00 0.00 0.00 79 1013.9
20260508104822 20 86 0.0 1.6 0.00 0.00 0.00 79 1014.0
20260508103822 20 63 0.0 1.6 0.00 0.00 0.00 79 1014.5